This demonstration page uses our WeatherBlox Daily Observations layout. Learn more.

36.17497, -115.13722

Hourly Observations for May 28, 2018

Temp ( °F °C ) Dew Point ( °F °C ) Humidity (%) Winds ( mph kmh ) Pressure ( in mb ) Visibility ( mi km ) Precip ( " mm )
12:53 am 00:53 Clear 76 24.4 36 2.2 23 23 NNW 16 26 29.83 1010 10 16.09344 0 0
1:53 am 01:53 Clear 77 25 36 2.2 23 23 NW 18 30 29.83 1010 10 16.09344 0 0
2:53 am 02:53 Clear 73 22.8 38 3.3 28 28 NNE 6 9 29.83 1010 10 16.09344 0 0
3:53 am 03:53 Clear 73 22.8 39 3.9 29 29 N 13 20 29.83 1010 10 16.09344 0 0
4:53 am 04:53 Clear 71 21.7 38 3.3 30 30 NNW 9 15 29.83 1010 10 16.09344 0 0
5:53 am 05:53 Sunny 70 21.1 39 3.9 32 32 NW 7 11 29.85 1011 10 16.09344 0 0
6:53 am 06:53 Sunny 72 22.2 39 3.9 30 30 Calm 29.88 1012 10 16.09344 0 0
7:53 am 07:53 Sunny 77 25 41 5 28 28 N 13 20 29.88 1012 10 16.09344 0 0
8:53 am 08:53 Sunny 79 26.1 40 4.4 25 25 N 10 17 29.88 1012 10 16.09344 0 0
9:53 am 09:53 Sunny 83 28.3 39 3.9 21 21 N 10 17 29.88 1012 10 16.09344 0 0
10:53 am 10:53 Sunny 84 28.9 39 3.9 20 20 N 18 30 29.88 1012 10 16.09344 0 0
11:53 am 11:53 Sunny 86 30 39 3.9 19 19 NNW 18 30 29.88 1012 10 16.09344 0 0
12:53 pm 12:53 Sunny 88 31.1 38 3.3 17 17 N 14 22 29.85 1011 10 16.09344 0 0
1:53 pm 13:53 Sunny 89 31.7 37 2.8 16 16 N 18 30 29.83 1010 10 16.09344 0 0
2:53 pm 14:53 Sunny 91 32.8 36 2.2 14 14 N 15 24 29.83 1010 10 16.09344 0 0
3:53 pm 15:53 Mostly Sunny 91 32.8 35 1.7 14 14 NNE 20 31 29.8 1009 10 16.09344 0 0
4:53 pm 16:53 Mostly Sunny 92 33.3 33 0.6 12 12 N 18 30 29.8 1009 10 16.09344 0 0
5:53 pm 17:53 Sunny 91 32.8 33 0.6 13 13 N 21 33 29.77 1008 10 16.09344 0 0
6:53 pm 18:53 Sunny 90 32.2 34 1.1 14 14 N 15 24 29.77 1008 10 16.09344 0 0
7:53 pm 19:53 Clear 88 31.1 35 1.7 15 15 N 6 9 29.77 1008 10 16.09344 0 0
8:53 pm 20:53 Clear 84 28.9 35 1.7 17 17 E 8 13 29.8 1009 10 16.09344 0 0
9:53 pm 21:53 Clear 84 28.9 36 2.2 18 18 E 5 7 29.8 1009 10 16.09344 0 0
10:53 pm 22:53 Clear 82 27.8 38 3.3 21 21 W 5 7 29.83 1010 10 16.09344 0 0
11:53 pm 23:53 Clear 78 25.6 40 4.4 26 26 NNW 6 9 29.83 1010 10 16.09344 0 0

Powered by AerisWeather